TimeCST,TemperatureF,Dew PointF,Humidity,Sea Level PressureIn,VisibilityMPH,Wind Direction,Wind SpeedMPH,Gust SpeedMPH,PrecipitationIn,Events,Conditions,WindDirDegrees,DateUTC
12:15 AM,33.8,28.4,81,30.41,10.0,Calm,Calm,-,N/A,,Clear,0,2013-12-25 06:15:00
12:35 AM,33.8,26.6,75,30.40,10.0,Calm,Calm,-,N/A,,Clear,0,2013-12-25 06:35:00
12:55 AM,32.0,28.4,87,30.40,10.0,Calm,Calm,-,N/A,,Clear,0,2013-12-25 06:55:00
1:15 AM,33.8,26.6,75,30.40,10.0,Calm,Calm,-,N/A,,Clear,0,2013-12-25 07:15:00
1:35 AM,32.0,26.6,80,30.39,10.0,Calm,Calm,-,N/A,,Clear,0,2013-12-25 07:35:00
1:55 AM,32.0,26.6,80,30.39,10.0,ENE,3.5,-,N/A,,Clear,60,2013-12-25 07:55:00
2:15 AM,32.0,26.6,80,30.38,10.0,NE,4.6,-,N/A,,Clear,50,2013-12-25 08:15:00
2:35 AM,32.0,26.6,80,30.37,10.0,NE,5.8,-,N/A,,Clear,40,2013-12-25 08:35:00
2:55 AM,32.0,24.8,75,30.38,10.0,NE,6.9,-,N/A,,Clear,40,2013-12-25 08:55:00
3:15 AM,32.0,24.8,75,30.39,10.0,ENE,3.5,-,N/A,,Clear,60,2013-12-25 09:15:00
3:35 AM,32.0,24.8,75,30.39,10.0,Calm,Calm,-,N/A,,Clear,0,2013-12-25 09:35:00
3:55 AM,32.0,24.8,75,30.39,10.0,Calm,Calm,-,N/A,,Clear,0,2013-12-25 09:55:00
4:15 AM,32.0,24.8,75,30.40,10.0,Calm,Calm,-,N/A,,Clear,0,2013-12-25 10:15:00
4:35 AM,30.2,24.8,80,30.40,10.0,Calm,Calm,-,N/A,,Clear,0,2013-12-25 10:35:00
4:55 AM,28.4,24.8,86,30.40,10.0,Calm,Calm,-,N/A,,Clear,0,2013-12-25 10:55:00
5:15 AM,28.4,24.8,86,30.40,10.0,Calm,Calm,-,N/A,,Clear,0,2013-12-25 11:15:00
5:35 AM,28.4,24.8,86,30.41,10.0,Calm,Calm,-,N/A,,Clear,0,2013-12-25 11:35:00
5:55 AM,26.6,24.8,93,30.42,10.0,Calm,Calm,-,N/A,,Clear,0,2013-12-25 11:55:00
6:15 AM,26.6,24.8,93,30.42,10.0,Calm,Calm,-,N/A,,Clear,0,2013-12-25 12:15:00
6:35 AM,28.4,24.8,86,30.42,10.0,Calm,Calm,-,N/A,,Clear,0,2013-12-25 12:35:00
6:55 AM,28.4,24.8,86,30.43,10.0,Calm,Calm,-,N/A,,Clear,0,2013-12-25 12:55:00
7:15 AM,30.2,24.8,80,30.42,10.0,NE,3.5,-,N/A,,Clear,40,2013-12-25 13:15:00
7:35 AM,30.2,24.8,80,30.42,10.0,NE,3.5,-,N/A,,Clear,50,2013-12-25 13:35:00
7:55 AM,32.0,24.8,75,30.43,10.0,Calm,Calm,-,N/A,,Clear,0,2013-12-25 13:55:00
8:15 AM,32.0,24.8,75,30.42,10.0,NE,3.5,-,N/A,,Clear,50,2013-12-25 14:15:00
8:35 AM,33.8,24.8,70,30.42,10.0,East,4.6,-,N/A,,Clear,90,2013-12-25 14:35:00
8:55 AM,37.4,24.8,60,30.43,10.0,ENE,4.6,-,N/A,,Clear,70,2013-12-25 14:55:00
9:15 AM,37.4,24.8,60,30.43,10.0,East,4.6,-,N/A,,Clear,90,2013-12-25 15:15:00
9:35 AM,39.2,24.8,56,30.43,10.0,East,4.6,-,N/A,,Clear,100,2013-12-25 15:35:00
9:55 AM,41.0,24.8,53,30.43,10.0,East,4.6,-,N/A,,Clear,90,2013-12-25 15:55:00
10:15 AM,42.8,23.0,46,30.43,10.0,NE,5.8,-,N/A,,Clear,50,2013-12-25 16:15:00
10:35 AM,44.6,21.2,39,30.43,10.0,East,3.5,-,N/A,,Clear,90,2013-12-25 16:35:00
10:55 AM,44.6,21.2,39,30.41,10.0,East,4.6,-,N/A,,Clear,90,2013-12-25 16:55:00
11:15 AM,46.4,21.2,37,30.41,10.0,Calm,Calm,-,N/A,,Clear,0,2013-12-25 17:15:00
11:35 AM,46.4,21.2,37,30.40,10.0,Calm,Calm,-,N/A,,Clear,0,2013-12-25 17:35:00
11:55 AM,48.2,21.2,34,30.37,10.0,Calm,Calm,-,N/A,,Clear,0,2013-12-25 17:55:00
12:15 PM,46.4,21.2,37,30.36,10.0,North,3.5,-,N/A,,Clear,10,2013-12-25 18:15:00
12:35 PM,48.2,21.2,34,30.36,10.0,Calm,Calm,-,N/A,,Clear,0,2013-12-25 18:35:00
12:55 PM,48.2,23.0,37,30.35,10.0,NNW,5.8,-,N/A,,Clear,340,2013-12-25 18:55:00
1:15 PM,46.4,23.0,40,30.34,10.0,North,4.6,-,N/A,,Scattered Clouds,10,2013-12-25 19:15:00
1:35 PM,48.2,23.0,37,30.34,10.0,NW,4.6,-,N/A,,Scattered Clouds,320,2013-12-25 19:35:00
1:55 PM,48.2,21.2,34,30.33,10.0,NNE,4.6,-,N/A,,Scattered Clouds,20,2013-12-25 19:55:00
2:15 PM,48.2,21.2,34,30.33,10.0,Calm,Calm,-,N/A,,Scattered Clouds,0,2013-12-25 20:15:00
2:35 PM,48.2,23.0,37,30.33,10.0,NE,3.5,-,N/A,,Clear,50,2013-12-25 20:35:00
2:55 PM,48.2,23.0,37,30.34,10.0,North,5.8,-,N/A,,Clear,350,2013-12-25 20:55:00
3:15 PM,48.2,23.0,37,30.34,10.0,Calm,Calm,-,N/A,,Clear,0,2013-12-25 21:15:00
3:35 PM,48.2,24.8,40,30.35,10.0,Calm,Calm,-,N/A,,Clear,0,2013-12-25 21:35:00
3:55 PM,48.2,24.8,40,30.34,10.0,Calm,Calm,-,N/A,,Scattered Clouds,0,2013-12-25 21:55:00
4:15 PM,48.2,24.8,40,30.34,10.0,Calm,Calm,-,N/A,,Scattered Clouds,0,2013-12-25 22:15:00
4:35 PM,48.2,28.4,46,30.33,10.0,Calm,Calm,-,N/A,,Scattered Clouds,0,2013-12-25 22:35:00
4:55 PM,46.4,30.2,53,30.34,10.0,Calm,Calm,-,N/A,,Clear,0,2013-12-25 22:55:00
5:15 PM,44.6,32.0,61,30.34,10.0,Calm,Calm,-,N/A,,Clear,0,2013-12-25 23:15:00
5:35 PM,44.6,32.0,61,30.34,10.0,Calm,Calm,-,N/A,,Clear,0,2013-12-25 23:35:00
5:55 PM,42.8,33.8,70,30.35,10.0,Calm,Calm,-,N/A,,Scattered Clouds,0,2013-12-25 23:55:00
6:15 PM,44.6,33.8,66,30.35,10.0,Calm,Calm,-,N/A,,Scattered Clouds,0,2013-12-26 00:15:00
6:35 PM,42.8,32.0,66,30.36,10.0,Calm,Calm,-,N/A,,Mostly Cloudy,0,2013-12-26 00:35:00
6:55 PM,41.0,35.6,81,30.36,10.0,Calm,Calm,-,N/A,,Mostly Cloudy,0,2013-12-26 00:55:00
7:15 PM,41.0,33.8,76,30.36,10.0,Calm,Calm,-,N/A,,Overcast,0,2013-12-26 01:15:00
7:35 PM,39.2,35.6,87,30.37,10.0,Calm,Calm,-,N/A,,Mostly Cloudy,0,2013-12-26 01:35:00
7:55 PM,39.2,33.8,81,30.38,10.0,Calm,Calm,-,N/A,,Scattered Clouds,0,2013-12-26 01:55:00
8:15 PM,37.4,33.8,87,30.38,10.0,Calm,Calm,-,N/A,,Clear,0,2013-12-26 02:15:00
8:35 PM,37.4,33.8,87,30.37,10.0,North,3.5,-,N/A,,Clear,350,2013-12-26 02:35:00
8:55 PM,35.6,33.8,93,30.37,10.0,North,3.5,-,N/A,,Clear,10,2013-12-26 02:55:00
9:15 PM,37.4,33.8,87,30.37,10.0,Calm,Calm,-,N/A,,Clear,0,2013-12-26 03:15:00
9:35 PM,37.4,32.0,81,30.38,10.0,Calm,Calm,-,N/A,,Clear,0,2013-12-26 03:35:00
9:55 PM,37.4,32.0,81,30.38,10.0,Calm,Calm,-,N/A,,Clear,0,2013-12-26 03:55:00
10:15 PM,35.6,32.0,87,30.39,10.0,Calm,Calm,-,N/A,,Clear,0,2013-12-26 04:15:00
10:35 PM,33.8,32.0,93,30.39,10.0,NNE,3.5,-,N/A,,Clear,20,2013-12-26 04:35:00
10:55 PM,33.8,32.0,93,30.38,10.0,North,3.5,-,N/A,,Clear,10,2013-12-26 04:55:00
11:15 PM,35.6,32.0,87,30.37,10.0,NNE,3.5,-,N/A,,Clear,20,2013-12-26 05:15:00
11:35 PM,37.4,30.2,75,30.37,10.0,Calm,Calm,-,N/A,,Clear,0,2013-12-26 05:35:00
11:55 PM,37.4,30.2,75,30.37,10.0,Calm,Calm,-,N/A,,Clear,0,2013-12-26 05:55:00